Location: Lecco
(45.8566°N, 9.3977°E)
Time: 22:24:21
(UTC+02:00)

Vanguard 1 Rocket - Pass Details

Date: 19 August 2020
Orbit: 655 x 4221 km, 34.3° (Epoch: 30 September)

Event Time Altitude Azimuth Distance (km) Brightness Sun altitude
Exits shadow 02:23:03 15° 144° (SE) 4,964 10.8 -30.1°
Drops below altitude 10° 02:28:33 10° 120° (ESE) 4,741 10.9 -29.8°
Sets 02:33:43 0° 98° (E) 5,090 11.4 -29.5°
